Location: Leeds
(37.2390°N, 113.3580°W)
Time: 11:24:15
(UTC-07:00)

Daily predictions for brighter satellites

Satellite Brightness Start Highest point End
(mag) Time Altitude Azimuth Time Altitude Azimuth Time Altitude Azimuth
Cosmos 2016 Rocket 4.3 18:30:16 10° N 18:36:40 81° W 18:42:56 10° S
Meteor 1-27 Rocket 3.9 18:31:03 10° N 18:36:54 62° E 18:42:44 10° SSE
USA 238 DEB 4.2 18:32:40 10° SW 18:39:30 67° NW 18:46:26 10° NNE
USA 238 4.2 18:32:45 10° SW 18:39:36 68° NW 18:46:33 10° NNE
Cosmos 1703 Rocket 4.3 18:35:16 10° NNW 18:39:41 61° W 18:44:00 10° S
Cosmos 1980 4.3 18:34:29 10° N 18:39:43 36° ENE 18:44:54 10° SE
Lacrosse 5 2.7 18:35:26 10° NNW 18:40:00 33° NE 18:44:33 10° ESE
METEOR-M 4.4 18:34:42 10° S 18:40:02 80° WSW 18:45:25 10° NNW
Cosmos 2084 Rocket 3.6 18:36:33 10° SSW 18:40:56 60° ESE 18:45:08 10° NE
MOS 1 4.3 18:38:04 10° SSE 18:43:36 62° ENE 18:49:12 10° N
CZ-4 R/B 2.5 18:39:42 10° S 18:43:42 52° W 18:47:39 10° NNW
Iridium 2 3.6 18:40:42 10° N 18:44:32 77° E 18:48:20 10° S
Cosmos 2221 Rocket 3.6 18:41:09 10° N 18:45:36 87° E 18:50:00 10° S
Cosmos 1862 3.7 18:43:49 10° SSW 18:47:47 69° W 18:51:45 10° N
SJ-6B 4.5 18:48:25 10° E 18:50:21 14° ENE 18:52:19 10° NE
Landsat 4 3.6 18:47:15 10° NNE 18:50:58 66° ESE 18:54:41 10° S
ALOS 2.3 18:47:50 10° SSE 18:52:30 89° ENE 18:57:12 10° NNW
Abrixas rocket 2.0 18:52:49 10° NW 18:56:00 87° NE 18:59:10 10° SE
Cosmos 1371 Rocket 4.0 18:53:38 10° NNW 18:58:55 76° ENE 19:04:13 10° SSE
Cosmos 2285 Rocket 4.1 18:54:22 10° SSW 19:00:41 89° ESE 19:07:06 10° NNE
COSMO-SKYMED 1 3.6 18:59:51 10° N 19:04:04 50° WNW 19:08:14 10° SSW
SeaSat 1 3.4 19:01:32 10° ESE 19:05:38 27° NE 19:09:46 10° N
USA 215 3.2 19:04:46 10° NE 19:11:20 79° SE 19:17:52 10° SW
MOS 1-B Rocket 4.3 19:04:47 10° S 19:11:34 77° WSW 19:17:30 10° NNW
Cosmos 2219 Rocket 2.8 19:08:11 10° NNW 19:13:47 63° WSW 19:19:19 10° S
NOSS 3-2 (C) 3.4 19:10:19 10° SSW 19:16:11 86° NW 19:22:40 10° NNE
H-2A R/B 2.7 19:16:12 10° SSE 19:20:07 80° ENE 19:24:03 10° N
SPOT 3 Rocket 3.7 19:15:27 10° S 19:20:38 79° WSW 19:25:52 10° NNW
Cosmos 2227 Rocket 2.3 19:16:13 10° SSW 19:21:52 80° WNW 19:27:33 10° NNE
SL-8 R/B 3.7 19:18:46 10° SW 19:23:28 62° SE 19:26:31 21° ENE
Cosmos 2237 Rocket 2.1 19:19:24 10° NNW 19:25:04 80° ENE 19:30:41 10° SSE
OAO 2 Rocket 4.3 19:22:10 10° SW 19:26:27 30° SSE 19:28:42 21° ESE
SL-16 R/B 2.9 19:21:32 10° N 19:26:37 33° ENE 19:29:36 20° ESE
Cosmos 2056 Rocket 3.8 19:23:00 10° NNW 19:28:25 74° WSW 19:33:48 10° S
CZ-2D R/B 3.8 19:28:44 20° SE 19:30:54 35° ENE 19:34:29 10° N
Meteor 1-20 Rocket 4.3 19:25:31 10° S 19:30:59 54° E 19:36:35 10° NNE
ORS 1 (USA 231) 3.9 19:30:43 10° WNW 19:33:06 69° SSW 19:33:17 64° SSE
Cosmos 1674 Rocket 3.4 19:29:10 10° N 19:33:31 72° E 19:37:48 10° SSE
Cosmos 405 3.3 19:30:08 10° SSW 19:33:36 67° W 19:37:06 10° N
Meteor 1-18 Rocket 4.4 19:28:57 10° N 19:34:21 46° ENE 19:39:39 10° SSE
Cosmos 1452 Rocket 3.7 19:29:48 10° N 19:34:53 47° ENE 19:39:16 13° SE
Cosmos 2297 Rocket 2.5 19:30:44 10° SSW 19:36:22 70° WNW 19:42:01 10° NNE
Cosmos 1908 Rocket 3.6 19:32:35 10° S 19:36:57 56° E 19:41:20 10° NNE
Shenzhou-11 Module 2.1 19:38:16 10° WNW 19:41:15 66° SSW 19:41:45 52° SSE
Cosmos 1048 Rocket 4.3 19:36:44 10° S 19:41:46 43° ESE 19:45:21 18° NE
Cosmos 1812 2.6 19:38:54 10° N 19:42:48 90° W 19:46:40 10° S
USA 267 4.2 19:40:29 22° ENE 19:43:07 29° NNE 19:48:34 10° NNW
Resurs 01 Rocket 3.0 19:47:32 23° NE 19:47:32 23° NE 19:49:48 10° N
Cosmos 1733 Rocket 4.3 19:42:29 10° SSW 19:46:34 42° W 19:50:41 10° N
Geosat 4.0 19:42:30 13° NE 19:46:52 59° ESE 19:51:48 10° SSW
Meteor 1-25 Rocket 4.1 19:45:31 10° S 19:51:04 89° E 19:56:39 10° N
CZ-3C R/B 4.0 19:47:32 10° S 19:51:10 17° SE 19:52:35 16° SE
CENTAUR R/B 2.3 19:46:01 10° SSW 19:51:50 71° ESE 19:57:09 16° NE
ERS-2 3.1 19:50:25 10° S 19:53:58 47° W 19:57:33 10° NNW
BREEZE-M DEB (TANK) 3.4 19:51:19 10° SSW 19:53:46 41° SE 19:53:46 41° SE
Tiangong 2 1.9 19:51:01 10° WNW 19:53:40 41° N 19:53:40 41° N
Cosmos 2333 Rocket 4.1 19:50:52 10° NW 19:55:46 31° WSW 20:00:38 10° SSW
FREGAT/IRIS 4.3 19:54:25 10° SSW 19:57:08 34° W 19:59:53 10° NNW
Cosmos 1420 Rocket 3.9 19:53:12 10° NNW 19:58:26 63° ENE 20:00:38 34° SE
Cosmos 921 Rocket 4.5 19:55:18 10° N 19:57:35 24° NNE 19:57:35 24° NNE
Cosmos 158 Rocket 3.9 19:56:19 10° SSW 20:01:13 79° WNW 20:06:07 10° NNE
Cosmos 44 Rocket 3.8 19:57:09 10° NNW 20:01:50 43° NE 20:01:50 43° NE
Iridium 4 Rocket 3.2 19:57:33 10° N 20:02:34 84° W 20:07:05 10° S
Cosmos 1513 Rocket 4.4 19:56:11 10° N 20:02:34 82° E 20:08:49 10° S
Okean 3 4.0 20:01:33 10° NNW 20:05:38 56° W 20:09:43 10° S
Tsikada Rocket 3.9 20:04:11 10° S 20:10:28 65° E 20:16:49 10° NNE
Cosmos 1633 4.0 20:09:15 10° SSW 20:12:34 37° W 20:15:55 10° N
Thor Agena Rocket 4.0 20:12:03 10° N 20:17:04 59° WNW 20:22:01 10° SSW
Sich 1 Rocket 4.2 20:17:46 10° SSW 20:22:13 57° W 20:26:39 10° N
Lacrosse 5 3.0 20:18:19 10° WNW 20:23:01 39° SW 20:25:19 25° S
SJ-6B 4.3 20:21:15 10° SSW 20:24:41 34° W 20:28:10 10° NNW
USA 32 4.5 20:19:31 10° SSW 20:24:41 61° W 20:29:53 10° N
Envisat 3.5 20:24:19 10° S 20:29:18 59° W 20:34:20 10° NNW
Cosmos 1269 Rocket 3.9 20:25:27 10° SSW 20:30:44 85° WNW 20:30:51 84° NW
Cosmos 1782 Rocket 4.3 20:29:53 10° SSW 20:33:41 51° WSW 20:33:41 51° WSW
SeaSat 1 3.8 20:40:28 22° SSW 20:42:59 36° WSW 20:47:32 10° NW
Cosmos 44 4.0 20:40:43 10° NW 20:45:16 56° W 20:45:16 56° W
SL-16 R/B 3.7 21:05:42 10° NW 21:10:37 31° WSW 21:11:35 30° WSW
CZ-4C R/B 4.3 21:11:17 10° NNW 21:14:28 24° N 21:14:28 24° N
Resurs 01 Rocket 4.5 21:25:06 14° NW 21:25:06 14° NW 21:25:54 10° NW
USA 267 4.1 21:27:51 45° NW 21:27:51 45° NW 21:32:09 10° NW
CENTAUR R/B 4.5 21:38:20 10° W 21:43:13 23° NW 21:44:27 22° NNW
